METEOR 2-7 DEB

Satellite information

Favourite Embed

Satellite Type and Status

DEBRISIN ORBIT

Key statistics

Satellite METEOR 2-7 DEB at a glance.

Uptime

16231

Days in orbit

Revolutions

≈ 14.6

Per day

Orbit

LEO

Low Earth Orbit

Inclination

81.3

Latest

Satellite identification and parameters

Extended collection of information and parameters for METEOR 2-7 DEB.

Object identification

Identified? True

Debris? True

Object name: METEOR 2-7 DEB

International designator: 1981-043F

Object number (NORAD): 28389

Object ID (CCSDS): 28389

Country: COMMONWEALTH OF INDEPENDENT STATES (CIS)

Current information (Y/N): Y

RCS size: SMALL

Orbital parameters

Period: 98.815 minutes

Inclination: 81.2666 deg

SMA: 7080.149 km

Apoapsis: 722.292 km

Periapsis: 681.736 km

RAAN: 172.1298 deg

Eccentricy: 0.00286405

Argument of periapsis: 10.4846 deg

Mean anomaly: 349.6942 deg

Mean motion: 14.57267167 rev/day

Mean motion (dot): 0.00014189 rev/day2

B* drag term: 0.0031138666 1/REarth

Two-line elements (TLE)

Creation date: Oct. 19, 2025, 2:20 a.m.

Reference frame: TEME

Reference center: EARTH

Epoch: Oct. 18, 2025, 10:26 p.m. UTC

TLE line 0: 0 METEOR 2-7 DEB

TLE line 1: 1 28389U 81043F 25291.93526910 .00014189 00000-0 31139-2 0 9992

TLE line 2: 2 28389 81.2666 172.1298 0028641 10.4846 349.6942 14.57267167 92807

Live tracking on map

Real-time ground track for satellite METEOR 2-7 DEB.

In-orbit conjunctions

A list of the most updated potential collisions computed for object METEOR 2-7 DEB.

Target Orbit TCA Probability of collision Miss distance Type
MONITOR-E/SL-19 SSO 2025-08-26 18:56:34 0.0009943243 493.0 (m) PAYLOAD
CZ-4 DEB SSO 2025-05-22 15:29:47 0.0006840491 27.0 (m) DEBRIS
CZ-4B R/B SSO 2024-11-08 08:07:15 0.0001229936 434.0 (m) ROCKET BODY

Associated space launch

Second generation soviet meteorological satellite

METEOR 2-7 DEB was lifted into orbit during the mission ‘Vostok 8A92M | Meteor-2 7’, on board a Vostok 8A92M space rocket.

The launch took place on May 14, 1981, 9:45 p.m. from 43/3 (43L).

For more information about the launch, click the button.

Launch to space Vostok 8A92M | Meteor-2 7
Vostok 8A92M | Meteor-2 7

Agency: N/A

Status: Launch Successful

Launch date: May 14, 1981, 9:45 p.m. UTC

Rocket: Vostok 8A92M

Launch pad: 43/3 (43L)

Location: Plesetsk Cosmodrome, Russian Federation

...

Latest news about this satellite

There are no fresh news available about this satellite. Check back as we update our databases every day.


Newsletter sign-up

Weekly statistics, charts and insights to help you stay on top of the space industry.